SL-16 DEB, 22619

Orbit data source: Space-Track

SL-16 DEB, 22619 is space debris in LEO originally from a launch on Fri, 26 Mar 1993 UTC launched from the Tyuratam Missile And Space Complex (TTMTR). Debris objects in space refer to the collection of defunct objects orbiting the Earth. Examples of debris include non-operational satellites, rocket bodies, and fragments generated from explosions, collisions, or faulty payload assembly.

Loading next visibility...
Identifier
22619, 1993-016AD
Orbit
LEO
Country
Flag of CISCIS
Related business
Manufacturer
Unknown
Mission
Spacecraft
Bus & Motor
Unknown
Mass
Unknown
Launch date (UTC)
1993-03-26 (33 years ago)
Launch vehicle
Unknown
Launch site
Tyuratam Missile And Space Complex (TTMTR)
Object type
Payload
Rocket body
Debris
Shape & HBR
Unknown shape, 0.3 m
Radar Cross Section
Medium (>0.1 m² and <1 m²)

Expand to show TLE details & history
Last TLE update: 21 hours ago

TLE from 21 hours ago
0 SL-16 DEB
1 22619U 93016AD  25304.75489876  .00000029  00000-0  67211-4 0  9999
2 22619  71.0006 329.1546 0183755 108.7133   8.6932 13.73857174633723
Epoch: 2025-10-31T18:07Z
TLE epoch observation values (Epoch: 2025-10-31T18:07:03.252Z)
Latitude
56.92701°
Longitude
165.36571°
Altitude
861.022 km
Speed
7.495 km/s
True Right ascension
07h 49m 41s
True Declination
56° 46' 18"
Sunlit
Object was in daylight at epoch
Visualization orbit readout
Latitude
Unknown
Longitude
Unknown
Altitude
Unknown
Speed
Unknown
Apparent Right ascension
Unknown
Apparent Declination
Unknown
Sunlit
N/A
Visualization observer readout
Local Sidereal Time
10:59:23
Azimuth
Unknown
Elevation
Unknown
Doppler factor
Unknown
Orbital elements
Apogee altitude
1,118.998 km
Perigee altitude
848.442 km
Semi-major axis
7,361.857 km
Eccentricity
0.01838
Inclination
71.0006°
RAAN
329.1546°
Arg. of periapsis
108.7133°
True anomaly
9.01884°
Mean anomaly
8.6932°
Eccentric anomaly
8.85527°
Mean motion
3.43607 °/min
Orbital period
104.77 mins
BSTAR
0.000067211
Loading maneuver chart data...
Computing Atmospheric mass density...
Loading historical data...
Loading historical data...
Loading historical data...
Loading historical data...
Loading historical data...
Loading historical data...
Loading historical data...

Documentation

Showing up to 5 results
|